2024/01/16 00:00:00,23.5,-2.6
2024/01/16 00:10:00,23.6,-2.6
2024/01/16 00:20:00,23.5,-2.3
2024/01/16 00:30:00,23.3,-2.6
2024/01/16 00:40:00,23.3,-2.7
2024/01/16 00:50:00,23.3,-2.6
2024/01/16 01:00:00,23.1,-2.9
2024/01/16 01:10:00,23.0,-2.9
2024/01/16 01:20:00,22.9,-2.8
2024/01/16 01:30:00,22.9,-2.9
2024/01/16 01:40:00,22.9,-2.9
2024/01/16 01:50:00,22.9,-2.9
2024/01/16 02:00:00,23.0,-3.0
2024/01/16 02:10:00,23.8,-2.8
2024/01/16 02:20:00,23.9,-3.0
2024/01/16 02:30:00,23.3,-2.7
2024/01/16 02:40:00,23.7,-2.9
2024/01/16 02:50:00,23.8,-3.1
2024/01/16 03:00:00,23.6,-3.1
2024/01/16 03:10:00,23.2,-3.4
2024/01/16 03:20:00,23.3,-3.0
2024/01/16 03:30:00,23.6,-3.1
2024/01/16 03:40:00,23.5,-3.2
2024/01/16 03:50:00,23.4,-3.3
2024/01/16 04:00:00,23.4,-3.2
2024/01/16 04:10:00,23.3,-3.5
2024/01/16 04:20:00,23.3,-3.5
2024/01/16 04:30:00,23.4,-3.4
2024/01/16 04:40:00,23.2,-3.5
2024/01/16 04:50:00,23.3,-3.7
2024/01/16 05:00:00,23.4,-3.7
2024/01/16 05:10:00,23.4,-4.0
2024/01/16 05:20:00,23.4,-4.2
2024/01/16 05:30:00,23.3,-4.0
2024/01/16 05:40:00,23.3,-3.9
2024/01/16 05:50:00,23.3,-4.1
2024/01/16 06:00:00,23.3,-4.2
2024/01/16 06:10:00,23.3,-4.5
2024/01/16 06:20:00,23.2,-4.8
2024/01/16 06:30:00,23.2,-4.5
2024/01/16 06:40:00,23.2,-4.6
2024/01/16 06:50:00,23.1,-4.3
2024/01/16 07:00:00,23.1,-4.6
2024/01/16 07:10:00,23.2,-4.5
2024/01/16 07:20:00,23.2,-4.2
2024/01/16 07:30:00,23.5,-4.2
2024/01/16 07:40:00,24.0,-4.4
2024/01/16 07:50:00,24.9,-4.1
2024/01/16 08:00:00,25.1,-4.0
2024/01/16 08:10:00,25.1,-4.0
2024/01/16 08:20:00,25.1,-4.0
2024/01/16 08:30:00,25.1,-3.6
2024/01/16 08:40:00,25.2,-3.9
2024/01/16 08:50:00,25.7,-3.9
2024/01/16 09:00:00,25.6,-3.3
2024/01/16 09:10:00,25.6,-3.2
2024/01/16 09:20:00,25.6,-3.1
2024/01/16 09:30:00,25.6,-1.9
2024/01/16 09:40:00,25.6,-2.2
2024/01/16 09:50:00,26.0,-2.5
2024/01/16 10:00:00,26.6,-2.9
2024/01/16 10:10:00,27.2,-3.1
2024/01/16 10:20:00,27.5,-2.3
2024/01/16 10:30:00,27.5,-1.1
2024/01/16 10:40:00,27.4,-1.2
2024/01/16 10:50:00,27.5,-2.1
2024/01/16 11:00:00,27.8,-1.4
2024/01/16 11:10:00,28.0,-1.2
2024/01/16 11:20:00,27.9,-1.0
2024/01/16 11:30:00,27.7,-0.8
2024/01/16 11:40:00,27.8,-1.4
2024/01/16 11:50:00,27.9,-1.3
2024/01/16 12:00:00,28.1,-1.0
2024/01/16 12:10:00,27.9,-1.4
2024/01/16 12:20:00,27.9,-1.5
2024/01/16 12:30:00,27.7,-1.0
2024/01/16 12:40:00,27.6,-1.0
2024/01/16 12:50:00,28.1,-1.4
2024/01/16 13:00:00,28.3,-1.6
2024/01/16 13:10:00,27.9,-1.4
2024/01/16 13:20:00,27.8,-1.0
2024/01/16 13:30:00,27.8,-0.3
2024/01/16 13:40:00,27.6,-0.3
2024/01/16 13:50:00,27.6,-0.2
2024/01/16 14:00:00,27.7,-0.4
2024/01/16 14:10:00,27.9,-0.6
2024/01/16 14:20:00,27.9,-0.6
2024/01/16 14:30:00,27.9,-1.0
2024/01/16 14:40:00,27.7,-1.1
2024/01/16 14:50:00,27.6,-1.0
2024/01/16 15:00:00,27.4,-0.9
2024/01/16 15:10:00,27.5,-1.3
2024/01/16 15:20:00,27.5,-1.0
2024/01/16 15:30:00,27.5,-1.5
2024/01/16 15:40:00,27.5,-1.7
2024/01/16 15:50:00,27.5,-1.9
2024/01/16 16:00:00,27.4,-1.8
2024/01/16 16:10:00,27.4,-1.9
2024/01/16 16:20:00,27.4,-2.0
2024/01/16 16:30:00,27.5,-2.4
2024/01/16 16:40:00,27.4,-2.1
2024/01/16 16:50:00,27.2,-2.2
2024/01/16 17:00:00,27.1,-2.4
2024/01/16 17:10:00,27.1,-2.4
2024/01/16 17:20:00,27.0,-2.5
2024/01/16 17:30:00,27.0,-2.7
2024/01/16 17:40:00,27.0,-2.7
2024/01/16 17:50:00,26.9,-2.9
2024/01/16 18:00:00,26.8,-2.7
2024/01/16 18:10:00,26.8,-3.1
2024/01/16 18:20:00,26.8,-3.0
2024/01/16 18:30:00,26.9,-3.1
2024/01/16 18:40:00,26.8,-3.1
2024/01/16 18:50:00,26.8,-3.2
2024/01/16 19:00:00,26.8,-3.4
2024/01/16 19:10:00,26.9,-3.3
2024/01/16 19:20:00,26.9,-3.4
2024/01/16 19:30:00,27.0,-3.4
2024/01/16 19:40:00,27.0,-3.3
2024/01/16 19:50:00,27.1,-3.4
2024/01/16 20:00:00,27.1,-3.4
2024/01/16 20:10:00,27.1,-3.0
2024/01/16 20:20:00,27.0,-3.6
2024/01/16 20:30:00,26.9,-3.5
2024/01/16 20:40:00,26.9,-3.8
2024/01/16 20:50:00,26.9,-4.1
2024/01/16 21:00:00,26.8,-4.3
2024/01/16 21:10:00,26.8,-4.4
2024/01/16 21:20:00,26.7,-4.7
2024/01/16 21:30:00,26.6,-4.6
2024/01/16 21:40:00,26.8,-4.9
2024/01/16 21:50:00,26.8,-5.0
2024/01/16 22:00:00,26.8,-4.9
2024/01/16 22:10:00,26.8,-5.0
2024/01/16 22:20:00,26.8,-5.3
2024/01/16 22:30:00,26.9,-5.2
2024/01/16 22:40:00,26.9,-5.3
2024/01/16 22:50:00,26.9,-5.1
2024/01/16 23:00:00,26.9,-5.6
2024/01/16 23:10:00,26.9,-5.4
2024/01/16 23:20:00,26.9,-5.6
2024/01/16 23:30:00,26.9,-5.5
2024/01/16 23:40:00,26.9,-5.4
2024/01/16 23:50:00,26.9,-5.5
